Powrót do katalogu

NOAA 16 DEB

AktywnySSO
NORAD 41067·DEBRIS·🇺🇸 United States

Wystrzelony Sep 21, 2000 z Vandenberg Space Force Base

Loading…

Następne Przeloty (najbliższe 24 godziny)

TLE

ŚwieżeSource: Space-Track

Epoka: Sep 14, 2026, 19:40 UTC

1 41067U 00055AA  26257.81987540  .00000714  00000-0  36809-3 0  9993
2 41067  98.5141 287.6524 0004630  39.6530 320.4984 14.18172776557518

Śledź NOAA 16 DEB w czasie rzeczywistym z AllMySat

Download on the App Store